GLOBALSTAR M004 DEB, 43356

Orbit data source: Space-Track

GLOBALSTAR M004 DEB, 43356 is space debris in LEO originally from a launch on Sat, 14 Feb 1998 UTC launched from the Air Force Eastern Test Range (AFETR). Debris objects in space refer to the collection of defunct objects orbiting the Earth. Examples of debris include non-operational satellites, rocket bodies, and fragments generated from explosions, collisions, or faulty payload assembly.

Loading next visibility...
Identifier
43356, 1998-008G
Orbit
LEO
Country
Flag of USUS
Related business
Manufacturer
Unknown
Mission
Spacecraft
Bus & Motor
Unknown
Mass
Unknown
Launch date (UTC)
1998-02-14 (28 years ago)
Launch vehicle
Unknown
Launch site
Air Force Eastern Test Range (AFETR)
Object type
Payload
Rocket body
Debris
Shape & HBR
Unknown shape, 0.1 m
Radar Cross Section
Small (<0.1 m²)

Expand to show TLE details & history
Last TLE update: 13 hours ago

TLE from 13 hours ago
0 GLOBALSTAR M004 DEB
1 43356U 98008G   25343.16297631  .00000950  00000-0  47268-2 0  9991
2 43356  51.9030 331.4445 0042263 186.4367 173.5967 12.78425801460980
Epoch: 2025-12-09T03:54Z
TLE epoch observation values (Epoch: 2025-12-09T03:54:41.153Z)
Latitude
-0.00004°
Longitude
-165.37861°
Altitude
1,380.933 km
Speed
7.155 km/s
True Right ascension
22h 05m 46s
True Declination
0° 00' 00"
Sunlit
Object was in daylight at epoch
Visualization orbit readout
Latitude
Unknown
Longitude
Unknown
Altitude
Unknown
Speed
Unknown
Apparent Right ascension
Unknown
Apparent Declination
Unknown
Sunlit
N/A
Visualization observer readout
Local Sidereal Time
14:38:55
Azimuth
Unknown
Elevation
Unknown
Doppler factor
Unknown
Orbital elements
Apogee altitude
1,380.869 km
Perigee altitude
1,315.562 km
Semi-major axis
7,726.352 km
Eccentricity
0.00423
Inclination
51.903°
RAAN
331.4445°
Arg. of periapsis
186.4367°
True anomaly
173.65043°
Mean anomaly
173.5967°
Eccentric anomaly
173.62359°
Mean motion
3.19581 °/min
Orbital period
112.65 mins
BSTAR
0.0047268
Loading maneuver chart data...
Computing Atmospheric mass density...
Loading historical data...
Loading historical data...
Loading historical data...
Loading historical data...
Loading historical data...
Loading historical data...
Loading historical data...

Documentation

Showing up to 5 results
|